Regional Weather Roundup
Issued by NWS

Current Version | Previous Version | Text Only | Print | Product List | Glossary On
Versions: 1 2 3 4 5 6 7 8 9 10 11 12 13 14 15 16 17 18 19 20 21 22 23 24 25 26 27 28 29 30 31 32 33 34 35 36 37 38 39 40 41 42 43 44 45 46 47 48 49 50
000
ASUS42 KTBW 191916
RWRFL
FLORIDA REGIONAL WEATHER ROUNDUP
NATIONAL WEATHER SERVICE TAMPA BAY RUSKIN FL
300 PM EDT SUN APR 19 2015

NOTE: "FAIR" INDICATES FEW OR NO CLOUDS BELOW 12,000 FEET WITH NO
SIGNIFICANT WEATHER AND/OR OBSTRUCTIONS TO VISIBILITY.


FLZ001>010-012>015-112-114-115-192000-
PANHANDLE FLORIDA

CITY           SKY/WX    TMP DP  RH WIND       PRES   REMARKS
PENSACOLA      LGT RAIN  73  68  84 S13G23    29.80F
PENSACOLA NAS  PTSUNNY   76  71  85 SW20G25   29.79F
MILTON NAS     CLOUDY    75  74  96 SW20      29.80
CRESTVIEW      CLOUDY    73  69  87 SW10      29.82F
DUKE FIELD     PTSUNNY   73  66  80 S12       29.80F
VALPARAISO     CLOUDY    74  66  75 SW10G17   29.80F
MARY ESTHER    PTSUNNY   75  59  58 SW12G21   29.79F
TRI COUNTY     FAIR      70  68  93 S7        29.80F
PANAMA CITY    LGT RAIN  72  66  81 S7        29.81S
TYNDALL AFB    DRIZZLE   70  67  88 SE5       29.83F
APALACHICOLA   LGT RAIN  72  68  87 E5        29.85F

STATION/POSITION SKY/WX   TEMP    WIND        PRES    WAVE   SWELL
                          AIR SEA DIR/SP/G            HT/PER HT/PER
                          (F)     (DEG/KT/KT) (MB)    (FT/S) (FT/S)
30.1N   87.6W              74 73  210/ 16/ 17 1008.7F   5/ 6
29.2N   88.2W              74 75  240/ 12/ 14 1010.4F   5/ 7   5/ 7
28.8N   86.0W              72 76   40/  4/  6 1011.6F   6/ 6   5/ 6
PANAMA CITY BEAC           71 75  170/  7/ 10 1010.0F
CAPE SAN BLAS    NOT AVBL
TOWER C                    70     280/  8/ 10 1012.2F
28.5N   84.5W              69 77  320/ 23/ 29 1013.9R   4/ 5

$$
FLZ011-016>038-118-127-128-134-139-239-192000-
NORTH FLORIDA

CITY           SKY/WX    TMP DP  RH WIND       PRES   REMARKS
MARIANNA       LGT RAIN  68  68 100 S9        29.81F
TALLAHASSEE    TSTM      69  67  93 W7        29.91R VSB 1/2
PERRY          TSTM      69  66  90 W20G30    29.93R VSB 1
CROSS CITY       N/A     81  71  71 S13G29    29.91S
LAKE CITY      FAIR      81  66  61 SW14G23   29.90R
GAINESVILLE    CLOUDY    86  67  52 W16G23    29.89F
MAYPORT NAS    CLOUDY    76  72  87 SE12      29.87F
JACKSONVILLE   CLOUDY    86  66  51 SW13G24   29.86F
JAX NAS        CLOUDY    91  65  41 SW15      29.87F
JAX CRAIG      CLOUDY    86  67  52 S10       29.86F
JAX CECIL      MOSUNNY   86  68  54 S12       29.88F
FERNANDINA BEA MOCLDY    82  73  74 SE14      29.86F
ST AUGUSTINE   LGT RAIN  81  74  79 SE10      29.89F

STATION/POSITION SKY/WX   TEMP    WIND        PRES    WAVE   SWELL
                          AIR SEA DIR/SP/G            HT/PER HT/PER
                          (F)     (DEG/KT/KT) (MB)    (FT/S) (FT/S)
SHELL POINT                68     270/  2/  4   N/A
KEATON BEACH               68     300/ 16/ 19 1014.5R
CEDAR KEY                  79     230/ 13/ 17 1013.8R
FERNANDINA                 80 72  150/  9/ 12 1011.3F
30.7N   81.3W                 72                N/A     2/ 9   2/12
MAYPORT                    79 72  140/ 11/ 14 1012.1F
31.4N   80.9W              71 70  150/  8/ 10 1011.7F   2/ 8   2/ 8
ST AUGUSTINE               74 72  160/  7/  8 1012.4F

$$
FLZ040-043>046-052-053-057-058-063-144-192000-
INTERIOR CENTRAL FLORIDA

CITY           SKY/WX    TMP DP  RH WIND       PRES   REMARKS
OCALA          MOSUNNY   90  63  40 SW14G23   29.91S
THE VILLAGES     N/A     88  82  84 S9G16     29.80F HX 108
LEESBURG       CLOUDY    87  68  52 SW9       29.90F
SANFORD        PTSUNNY   91  65  41 S12G22    29.88F
ORLANDO EXEC   PTSUNNY   90  70  51 S14       29.89F HX  95
ORLANDO INTL   CLOUDY    90  71  53 S14       29.89F HX  96
KISSIMMEE      MOSUNNY   90  70  51 SW14G21   29.90F HX  95
WINTER HAVEN   PTSUNNY   91  68  46 S14       29.91F HX  95
LAKELAND       PTSUNNY   90  70  51 S15G24    29.90F HX  95
BARTOW         MOSUNNY   90  66  45 S13G21    29.90F
OKEECHOBEE     MOSUNNY   90  70  51 S13       29.92F HX  95

$$
FLZ041-047-054-059-064-141-147-192000-
EAST CENTRAL FLORIDA

CITY           SKY/WX    TMP DP  RH WIND       PRES   REMARKS
ORMOND BEACH   MOSUNNY   90  68  48 SW9G16    29.89F
DAYTONA BEACH  CLOUDY    90  69  50 SW12      29.89F
DELAND           N/A     91  66  43 S13       29.90F
JFK SPACE CTR  MOSUNNY   90  70  51 SW15      29.87F HX  95
TITUSVILLE     MOSUNNY   91  70  49 SW17      29.89F HX  97
CAPE CANAVERAL MOSUNNY   87  74  65 SE10      29.88F HX  95
PATRICK AFB    MOSUNNY   85  76  75 SE15      29.88F
MELBOURNE      MOSUNNY   91  68  46 S17       29.88F HX  95
VERO BEACH     PTSUNNY   86  73  65 SE9       29.91F
FT PIERCE      PTSUNNY   86  73  65 SE10      29.90F

STATION/POSITION SKY/WX   TEMP    WIND        PRES    WAVE   SWELL
                          AIR SEA DIR/SP/G            HT/PER HT/PER
                          (F)     (DEG/KT/KT) (MB)    (FT/S) (FT/S)
28.5N   80.2W              79 80  150/ 10/ 12 1013.3F
28.9N   78.5W              79 79  170/  8/ 10 1014.2F
TRIDENT PIER               84 80  150/  5/ 10 1013.0F
28.4N   80.5W                 80                N/A     2/15   2/15
27.5N   80.2W                 79                N/A     3/13   2/13

$$
FLZ050-056-061-142-242-148-248-149-249-151-251-155-255-
160-260-192000-
WEST CENTRAL FLORIDA

CITY           SKY/WX    TMP DP  RH WIND       PRES   REMARKS
CRYSTAL RIVER  FAIR      84  72  65 SW10G21   29.93R
INVERNESS      FAIR     N/A N/A N/A S9G16     29.92R
BROOKSVILLE    CLOUDY    88  68  51 SW14      29.92S
CLEARWATER     CLOUDY    86  71  60 S15G28    29.92S
TAMPA INTL     CLOUDY    85  71  63 S18       29.92R
TAMPA EXEC     PTSUNNY   88  72  58 SW10G23   29.91S
PLANT CITY     PTSUNNY   90  72  55 SW10      29.92F HX  96
MACDILL AFB    PTSUNNY   86  76  72 SW24      29.92S HX  96
PETER O KNIGHT PTSUNNY   88  73  62 SW16G22   29.92R HX  96
ST PETERSBURG  PTSUNNY   83  71  67 SW20G28   29.90S
SARASOTA       PTSUNNY   84  72  67 S17G28    29.91S
VENICE         FAIR      84  73  70 S15       29.93F

STATION/POSITION SKY/WX   TEMP    WIND        PRES    WAVE   SWELL
                          AIR SEA DIR/SP/G            HT/PER HT/PER
                          (F)     (DEG/KT/KT) (MB)    (FT/S) (FT/S)
CEDAR KEY                  79     230/ 13/ 17 1013.8R
28.5N   84.5W              69 77  320/ 23/ 29 1013.9R   4/ 5
27.3N   84.2W                 78                N/A     4/ 5
CLEARWATER BEACH           80 82  190/ 18/ 23 1013.1F
MIDDLE TAMPA BAY           83     200/ 19/ 22 1013.0F
VENICE                     80 84  180/ 18/ 20 1012.8F

$$
FLZ066-069-070-075>078-162-262-165-265-192000-
SOUTHWEST FLORIDA AND KEYS

CITY           SKY/WX    TMP DP  RH WIND       PRES   REMARKS
PUNTA GORDA    MOSUNNY   90  70  51 SW17G24   29.92F HX  95
FT MYERS       MOSUNNY   88  71  57 SW15      29.91F
SOUTHWEST INTL SUNNY     88  72  58 SW20      29.92F
NAPLES         MOSUNNY   87  71  58 SW20G26   29.92F
MARCO ISLAND   CLOUDY    88  70  55 S8        29.93F
IMMOKALEE      PTCLDY   N/A N/A N/A S8        29.92F
MARATHON       MOSUNNY   87  76  69 VRB7      29.94F HX  97
KEY WEST NAS   PTSUNNY   85  74  69 S14       29.93F
KEY WEST INTL  SUNNY     85  75  72 S12       29.93F

STATION/POSITION SKY/WX   TEMP    WIND        PRES    WAVE   SWELL
                          AIR SEA DIR/SP/G            HT/PER HT/PER
                          (F)     (DEG/KT/KT) (MB)    (FT/S) (FT/S)
VENICE                     80 84  180/ 18/ 20 1012.8F
NAPLES                     83 85  180/  4/  9 1013.8S
26.0N   85.6W              81 80  210/ 14/ 16 1012.4F   4/ 5   2/ 8
DRY TORTUGAS               80     170/ 11/ 11 1013.6F
NW FL BAY                  82     190/ 11/ 13 1014.6
SAND KEY                   80     180/  7/  8 1013.6F
SOMBRERO KEY               81     170/ 11/ 11 1014.4F
LONG KEY                   81 85  170/ 11/ 12 1014.6F
MOLASSES REEF              80 80  190/ 13/ 14 1014.0F

$$
FLZ067-068-071>074-168-172>174-192000-
SOUTHEAST FLORIDA

CITY           SKY/WX    TMP DP  RH WIND       PRES   REMARKS
W PALM BEACH   MOSUNNY   90  68  48 S15       29.92F
FT LAUDER-EXEC MOSUNNY   91  68  46 S16       29.92F HX  95
FT LAUDERDALE  MOSUNNY   88  68  51 S17       29.92F
POMPANO BEACH  MOSUNNY   88  70  55 S17       29.92F
PEMBROKE PINES SUNNY     90  67  46 SE17G23   29.93F
OPA LOCKA      SUNNY     89  65  44 S15       29.93F
MIAMI          MOSUNNY   89  63  41 S15       29.93F
WEST KENDALL   SUNNY     90  65  43 S15       29.92F
HOMESTEAD      SUNNY     88  69  52 S10       29.93F

STATION/POSITION SKY/WX   TEMP    WIND        PRES    WAVE   SWELL
                          AIR SEA DIR/SP/G            HT/PER HT/PER
                          (F)     (DEG/KT/KT) (MB)    (FT/S) (FT/S)
PORT EVERGLADES            83     160/ 13/ 18 1013.4F
VIRGINIA KEY               81 84  200/ 14/ 19 1014.0F
LAKE WORTH                 80 81  170/ 16/ 19 1013.3F
SETTLEMENT POINT           81     190/ 14/ 15 1014.4F

$$



USA.gov is the U.S. government's official web portal to all federal, state and local government web resources and services.